Tracking 22881 objects as of 19-Apr-2021
HD Live streaming from Space Station
objects crossing your sky now

STARLINK-1406

Track STARLINK-1406 now!
10-day predictions
STARLINK-1406 is classified as:


NORAD ID: 45687
Int'l Code: 2020-035AG
Perigee: 556.4 km
Apogee: 557.3 km
Inclination: 53.0 °
Period: 95.6 minutes
Semi major axis: 6927 km
RCS: Unknown
Launch date: June 4, 2020
Source: United States (US)
Launch site: AIR FORCE EASTERN TEST RANGE (AFETR)
aabbcc
Your satellite tracking list
Your tracking list is empty




NASA's NSSDC Master Catalog

Two Line Element Set (TLE):
1 45687U 20035AG  21108.44395184  .00000839  00000-0  76736-4 0  9993
2 45687  53.0006 145.3748 0000706 134.6083 225.4962 15.05582436 49772
Source of the keplerian elements: AFSPC